Regional Weather Roundup
Issued by NWS

Current Version | Previous Version | Text Only | Print | Product List | Glossary On
Versions: 1 2 3 4 5 6 7 8 9 10 11 12 13 14 15 16 17 18 19 20 21 22 23 24 25 26 27 28 29 30 31 32 33 34 35 36 37 38 39 40 41 42 43 44 45 46 47 48 49 50
000
ASUS42 KFFC 181603
RWRGA
WEATHER ROUNDUP FOR GEORGIA
NATIONAL WEATHER SERVICE PEACHTREE CITY GA
1200 PM EDT SAT APR 18 2015

NOTE: "FAIR" INDICATES FEW OR NO CLOUDS BELOW 12,000 FEET WITH NO
SIGNIFICANT WEATHER AND/OR OBSTRUCTIONS TO VISIBILITY.

* = USE WITH CAUTION. THE STATIONS MARKED WITH AN ASTERISK MAY NOT
REPORT WEATHER SUCH AS PRECIPITATION, FOG, OR THUNDER AND ARE NOT
QUALITY CONTROLLED BY NWS.

THE REMARK "TC" DENOTES TEMPERATURE READING IN DEGREES CELSIUS.

GAZ001>058-181700-
NORTH GEORGIA

CITY           SKY/WX    TMP DP  RH WIND       PRES   REMARKS
ATLANTA        CLOUDY    67  62  84 E7        30.00R
ATHENS         LGT RAIN  67  64  90 E6        30.00S
CHAMBLEE       CLOUDY    68  62  81 VRB3      30.00S
PEACHTREE CITY CLOUDY    66  64  93 SE6       30.01R
ROME           PTSUNNY   69  63  81 N5        29.99R
WEST ATLANTA   CLOUDY    68  62  81 E3        30.00R
GAINESVILLE    PTSUNNY   70  61  73 E14       30.02S
CARTERSVILLE   CLOUDY    70  61  73 E5        29.99S


CITY           SKY/WX    TMP DP  RH WIND       PRES   REMARKS
DALTON*        CLOUDY    66  64  94 CALM      29.99F
LAWRENCEVILLE* CLOUDY    70  61  73 E10       30.00R
MARIETTA       CLOUDY    68  64  88 E7        30.00R
KENNESAW*      CLOUDY    72  64  78 E10       30.00R
BLAIRSVILLE*     N/A     72  44  36 NE3       30.01F
$$

GAZ059>098-102>109-181700-
CENTRAL GEORGIA

CITY           SKY/WX    TMP DP  RH WIND       PRES   REMARKS
AUGUSTA-BUSH   LGT RAIN  68  66  93 E3        29.99S FOG
AUGUSTA-DANIEL RAIN      68  65  90 E7        30.00S FOG
COLUMBUS       CLOUDY    69  63  81 W5        30.00R
MACON          CLOUDY    71  65  81 W6        29.99R
ROBINS AFB     CLOUDY    72  66  79 W6        29.98R


CITY           SKY/WX    TMP DP  RH WIND       PRES   REMARKS
LAGRANGE*      CLOUDY    73  68  86 SE5       30.01R
SYLVANIA*      CLOUDY    73  70  92 CALM      30.00S
MILLEDGEVILLE* CLOUDY    68  68 100 CALM      29.99S
$$

GAZ099>101-110>166-181700-
SOUTH GEORGIA

CITY           SKY/WX    TMP DP  RH WIND       PRES   REMARKS
SAVANNAH       CLOUDY    73  67  81 SE8       29.99S
VALDOSTA       MOSUNNY   82  70  66 VRB6      29.98F
ALMA           CLOUDY    73  69  87 W5        29.99R
ST SIMONS      LGT RAIN  72  71  97 S7        29.99S FOG
FT STEWART     CLOUDY    72  68  88 S5        29.97S
ALBANY         CLOUDY    73  67  81 S6        30.01F
HUNTER AFB     CLOUDY    74  70  89 S5        29.97S
MOODY AFB      PTSUNNY   78  69  73 W8        29.97F
BRUNSWICK      PTSUNNY   77  68  73 SW7       30.00R


CITY           SKY/WX    TMP DP  RH WIND       PRES   REMARKS
BAINBRIDGE*    CLOUDY    79  73  83 SW9       30.00S
MOULTRIE*      PTSUNNY   75  75 100 SW7       30.00S
VIDALIA*       RAIN      73  68  83 SW8       30.00R
WAYCROSS*      CLOUDY    81  74  78 W7        29.99S
DOUGLAS*       CLOUDY    77  68  73 SW9       30.01S
$$


USA.gov is the U.S. government's official web portal to all federal, state and local government web resources and services.